DMSP 5D-2 F13 DEB, 40673

Orbit data source: Space-Track

DMSP 5D-2 F13 DEB, 40673 is space debris in SSO originally from a launch on Fri, 24 Mar 1995 UTC launched from the Air Force Western Test Range (AFWTR). Debris objects in space refer to the collection of defunct objects orbiting the Earth. Examples of debris include non-operational satellites, rocket bodies, and fragments generated from explosions, collisions, or faulty payload assembly.

Loading next visibility...
Identifier
40673, 1995-015FM
Orbit
SSO
Country
Flag of USUS
Related business
Manufacturer
Unknown
Mission
Spacecraft
Bus & Motor
Unknown
Mass
Unknown
Launch date (UTC)
1995-03-24 (31 years ago)
Launch vehicle
Unknown
Launch site
Air Force Western Test Range (AFWTR)
Object type
Payload
Rocket body
Debris
Shape & HBR
Unknown shape, 0.1 m
Radar Cross Section
Small (<0.1 m²)

Expand to show TLE details & history
Last TLE update: 3 days ago

TLE from 3 days ago
0 DMSP 5D-2 F13 DEB
1 40673U 95015FM  25293.32736260  .00000959  00000-0  44939-3 0  9995
2 40673  98.7080 307.4829 0023394   4.3280 355.8096 14.22394002546632
Epoch: 2025-10-20T07:51Z
TLE epoch observation values (Epoch: 2025-10-20T07:51:24.128Z)
Latitude
-0.00002°
Longitude
160.60111°
Altitude
803.395 km
Speed
7.46 km/s
True Right ascension
20h 29m 55s
True Declination
0° 00' 00"
Sunlit
Object was in daylight at epoch
Visualization orbit readout
Latitude
Unknown
Longitude
Unknown
Altitude
Unknown
Speed
Unknown
Apparent Right ascension
Unknown
Apparent Declination
Unknown
Sunlit
N/A
Visualization observer readout
Local Sidereal Time
04:44:14
Azimuth
Unknown
Elevation
Unknown
Doppler factor
Unknown
Orbital elements
Apogee altitude
831.249 km
Perigee altitude
797.597 km
Semi-major axis
7,192.56 km
Eccentricity
0.00234
Inclination
98.708°
RAAN
307.4829°
Arg. of periapsis
4.328°
True anomaly
355.78995°
Mean anomaly
355.8096°
Eccentric anomaly
355.79978°
Mean motion
3.5581 °/min
Orbital period
101.18 mins
BSTAR
0.00044939

Documentation

Showing up to 5 results
|